Home > Weather > Kvernaland > Past weeks

Flag for Norway Past Weather in Kvernaland, Norway — Yesterday and Last 2 Weeks

Now
57 °F

Passing clouds.


Feels Like: 57 °F
Forecast: 54 / 58 °F
Wind: 2 mph from Southwest

Location: Stavanger / Sola

Current Time: Jul 31, 2016 at 5:45:26 AM

Latest Report: Jul 31, 2016 at 5:00 AM


Visibility: 31 mi

Pressure: 29.74 "Hg

Humidity: 79%

Dew Point: 51 °F

Location of KvernalandLocation

Past Weather in Kvernaland — Graph

°F

Kvernaland Temperature Yesterday

Maximum temperature yesterday: 61 °F (at 2:00 PM)
Minimum temperature yesterday: 54 °F (at 3:00 AM)
Average temperature yesterday: 58 °F

High & Low Weather Summary for the Past Weeks

 TemperatureHumidityPressure
High79 °F (Jul 20, 3:00 PM)98% (Jul 22, 4:00 AM)30.16 "Hg (Jul 22, 4:00 AM)
Low51 °F (Jul 17, 2:00 AM)56% (Jul 20, 3:00 PM)29.67 "Hg (Jul 27, 7:00 PM)
Average62 °F83%29.96 "Hg
* Reported Jul 16 4:00 AM — Jul 31 4:00 AM, Kvernaland, Weather by CustomWeather, © 2016

Note: Actual official high and low records may vary slightly from our data, if they occured in-between our weather recording intervals... More about our weather records

Advertising

Kvernaland Weather History for the Previous 24 Hours

Scroll right to see more
 ConditionsComfort  
Time TempWeatherWind HumidityBarometerVisibility
4:00 AM
Sun, Jul 31
58 °FPassing clouds.3 mph80%29.75 "Hg28 mi
3:00 AM55 °FLight rain. Passing clouds.2 mph92%29.75 "Hg19 mi
2:00 AM54 °FPassing clouds.2 mph93%29.76 "Hg17 mi
1:00 AM56 °FRain showers. Passing clouds.2 mph91%29.77 "Hg12 mi
12:00 AM57 °FLight rain. Overcast.6 mph87%29.78 "Hg14 mi
11:00 PM
Sat, Jul 30
56 °FLots of rain. Passing clouds.3 mph89%29.78 "Hg9 mi
10:00 PM57 °FRain showers. Partly sunny.6 mph81%29.78 "Hg16 mi
9:00 PM56 °FRain showers. Partly sunny.7 mph83%29.78 "Hg14 mi
8:00 PM60 °FDrizzle. Partly sunny.5 mph70%29.78 "Hg13 mi
7:00 PM61 °FPassing clouds.6 mph71%29.78 "Hg28 mi
6:00 PM60 °FPassing clouds.5 mph81%29.79 "Hg17 mi
5:00 PM61 °FScattered clouds.5 mph69%29.78 "Hg22 mi
4:00 PM60 °FLight rain. Scattered clouds.5 mph74%29.78 "Hg9 mi
3:00 PM61 °FScattered clouds.7 mph69%29.78 "Hg22 mi
2:00 PM61 °FScattered clouds.6 mph68%29.77 "Hg18 mi
1:00 PM60 °FPartly sunny.7 mph72%29.77 "Hg19 mi
12:00 PM61 °FScattered clouds.5 mph74%29.75 "Hg17 mi
11:00 AM59 °FRain showers. Partly sunny.3 mph84%29.75 "Hg7 mi
10:00 AM60 °FPartly sunny.5 mph73%29.75 "Hg25 mi
9:00 AM59 °FPartly sunny.2 mph79%29.75 "Hg31 mi
8:00 AM56 °FRain showers. Overcast.1 mph90%29.74 "Hg8 mi
7:00 AM55 °FPartly sunny.2 mph91%29.74 "Hg22 mi
6:00 AM54 °FPartly sunny.2 mph89%29.74 "Hg25 mi
5:00 AM55 °FOvercast.1 mph87%29.74 "Hg31 mi
Weather by CustomWeather, © 2016

See weather overviewHow to use our weather pages